Regional Weather Roundup
Issued by NWS

Home | Current Version | Previous Version | Text Only | Print | Product List | Glossary Off
Versions: 1 2 3 4 5 6 7 8 9 10 11 12 13 14 15 16 17 18 19 20 21 22 23 24 25 26 27 28 29 30 31 32 33 34 35 36 37 38 39 40 41 42 43 44 45 46 47 48 49 50

000
ASUS43 KMPX 190701
RWRMN
WEATHER ROUNDUP FOR MINNESOTA
NATIONAL WEATHER SERVICE TWIN CITIES/CHANHASSEN MN
200 AM CDT SAT APR 19 2014


NOTE: "FAIR" INDICATES FEW OR NO CLOUDS BELOW 12,000 FEET WITH NO
SIGNIFICANT WEATHER AND/OR OBSTRUCTIONS TO VISIBILITY. N/A MEANS
CURRENT SKY AND/OR WEATHER CONDITIONS ARE NOT AVAILABLE.

MNZ060>063-068>070-190800-
   Twin Cities Metro

CITY           SKY/WX    TMP DP  RH WIND       PRES   REMARKS
TWIN CITIES    MOCLDY    45  28  51 SE17      30.17F
ST PAUL        MOCLDY    44  27  51 SE14      30.19F
CRYSTAL        MOCLDY    45  27  49 SE13G21   30.14F
BLAINE         MOCLDY    46  28  49 SE15G22   30.15F
EDEN PRAIRIE   MOCLDY    45  28  51 SE20      30.13F
LAKEVILLE      MOCLDY    41  30  65 SE10      30.17F
SOUTH ST PAUL  MOCLDY    46  28  49 SE7       30.19F
LAKE ELMO      FAIR      43  28  56 SE10      30.21F
$$
MNZ001>005-007-008-013>017-022>024-027-028-190800-
   Northwest Minnesota

CITY           SKY/WX    TMP DP  RH WIND       PRES   REMARKS
BEMIDJI        LGT RAIN  37  26  63 SE25G36   30.00F
HALLOCK        DRIZZLE   39  34  81 SE24G32   29.82F
ROSEAU         RAIN      34  28  80 E21G31    29.94F WCI  22
WARROAD        MIX PCPN  36  28  75 E20G25    30.00F
THIEF RVR FALL CLOUDY    37  28  70 SE26G35   29.84F
CROOKSTON      CLOUDY    45  30  57 SE31G38   29.78F
FOSSTON        CLOUDY    39  28  65 SE25G37   29.86F
DETROIT LAKES  LGT RAIN  43  30  61 SE30G41   29.88F
MOORHEAD       CLOUDY    48  32  53 SE38G48   29.77F
PARK RAPIDS    CLOUDY    42  23  46 SE24G31   30.01F
$$
MNZ006-009>011-018-025>026-190800-
   North Central Minnesota

CITY           SKY/WX    TMP DP  RH WIND       PRES   REMARKS
BAUDETTE       CLOUDY    35  26  69 SE21G31   30.06F WCI  24
FLAG ISLAND    LGT SNOW  34  30  86 E22G30    30.03F WCI  22
INTL FALLS     CLOUDY    34  25  69 SE17G24   30.19F WCI  23
WASKISH        CLOUDY    39  19  45 E16G25    30.05F
LONGVILLE      CLOUDY    39  21  48 SE10G22   30.08F
GRAND RAPIDS   CLOUDY    36  18  48 SE10G22   30.15F
CRANE LAKE     CLOUDY    34  21  60 SE6       30.27F WCI  29
ORR            CLOUDY    34  19  55 SE9G18    30.20S WCI  26
COOK           CLOUDY    34  21  60 E8        30.23S WCI  27
$$
MNZ012-019>021-037-190800-
   Northeast Minnesota

CITY           SKY/WX    TMP DP  RH WIND       PRES   REMARKS
DULUTH         CLOUDY    32  23  69 E18       30.24F WCI  20
ELY            CLOUDY    32  19  59 SE10      30.28F WCI  24
HIBBING        CLOUDY    35  21  56 SE14      30.21F WCI  26
EVELETH        CLOUDY    34  23  64 E10       30.25S WCI  26
DULUTH HARBOR  CLOUDY    32  28  86 NE15      30.30F WCI  22
TWO HARBORS    CLOUDY    30  23  74 NE9       30.29S WCI  22
SILVER BAY     CLOUDY    30  27  86 NE12      30.31F WCI  21
GRAND MARAIS     N/A     33  24  69 NE8       30.40S WCI  26
G MARAIS ARPRT CLOUDY    28  18  64 E6        30.35S WCI  22
$$
MNZ029>031-032-039>041-046>048-054>057-064-190800-
   West Central Minnesota

CITY           SKY/WX    TMP DP  RH WIND       PRES   REMARKS
FERGUS FALLS   MOCLDY    45  27  49 SE32G40   29.87F
WHEATON        MOCLDY    48  37  66 SE29      29.88R
MORRIS         PTCLDY    45  34  65 SE30G40   29.90F
ALEXANDRIA     PTCLDY    40  29  64 SE22G33   30.00F
ELBOW LAKE     FAIR      45  31  59 SE22G32   29.91F
WADENA         CLOUDY    43  27  52 SE24G31   30.00F
GLENWOOD       PTCLDY    43  30  61 SE18G26   30.01S
APPLETON       MOCLDY    48  34  57 SE24G30   29.91F
BENSON         MOCLDY    45  34  65 S22G29    29.97F
ORTONVILLE     MOCLDY    46  34  61 SE26G33   29.86F
MADISON        MOCLDY    48  37  66 SE23      29.91F
WILLMAR        FAIR      43  32  65 SE23G30   30.02F
$$
MNZ033>034-036-042>043-049>051-058-059-190800-
   Central Minnesota

CITY           SKY/WX    TMP DP  RH WIND       PRES   REMARKS
ST CLOUD       CLOUDY    43  26  51 SE14G21   30.09F
SAUK CENTRE    FAIR      41  29  63 SE16G23   30.05R
PAYNESVILLE    PTCLDY    44  29  56 SE17      30.05F
PINE RIVER     CLOUDY    41  25  52 SE22G28   30.10F
BRAINERD       CLOUDY    46  24  42 SE13G22   30.10F
STAPLES        CLOUDY    43  25  49 SE14G23   30.05S
LONG PRAIRIE   FAIR      39  27  60 E14G23    30.05F
LITTLE FALLS   CLOUDY    41  27  56 SE10      30.09R
LITCHFIELD     MOCLDY    45  30  57 SE18G24   30.07S
BUFFALO        CLOUDY    44  28  53 E14G22    30.12F
MAPLE LAKE     CLOUDY    43  31  62 SE10G16   30.11F
$$
MNZ037-044-045-052-053-190800-
   East Central Minnesota

CITY           SKY/WX    TMP DP  RH WIND       PRES   REMARKS
PRINCETON      CLOUDY    43  27  52 E12G17    30.13F
MORA           CLOUDY    37  25  60 E9        30.18F
CAMBRIDGE      CLOUDY    45  28  53 SE12G18   30.14F
RUSH CITY      MOCLDY    42  25  52 SE9G18    30.19F
MOOSE LAKE     CLOUDY    34  23  64 E7        30.20F WCI  28
HINCKLEY       CLOUDY    39  25  56 E9G16     30.20S
CLOQUET        CLOUDY    32  23  69 E15       30.22F WCI  22
MCGREGOR       CLOUDY    36  23  60 E9G20     30.17F
$$
MNZ071>073-080-081-089-090-097-098-190800-
   Southwest Minnesota

CITY           SKY/WX    TMP DP  RH WIND       PRES   REMARKS
MONTEVIDEO     MOCLDY    48  36  61 S24G31    29.98R
GRANITE FALLS  MOCLDY    46  33  61 E23       29.99F
CANBY          PTCLDY    46  37  72 SE12      29.95R
MARSHALL       PTCLDY    48  34  57 SE16G23   29.94F
REDWOOD FALLS  PTCLDY    45  33  63 SE21      30.02F
OLIVIA         PTCLDY    43  32  65 SE17      30.02F
PIPESTONE      MOCLDY    52  37  58 S21G30    29.92F
WINDOM         MOCLDY    48  34  57 SE18      30.02F
WORTHINGTON    PTCLDY    48  32  53 S17G24    30.01F
JACKSON        MOCLDY    48  32  53 SE14      30.04F
TRACY          PTCLDY    48  36  62 SE14G21   29.97F
SLAYTON        PTCLDY    46  35  64 SE20      29.97F
$$
MNZ065>067-074>077-082>085-091>093-190800-
   South Central Minnesota

CITY           SKY/WX    TMP DP  RH WIND       PRES   REMARKS
MANKATO        CLOUDY    46  32  57 SE23      30.12F
NEW ULM        MOCLDY    46  34  61 SE20G25   30.06F
ST JAMES       CLOUDY    48  30  49 SE17G23   30.08S
FAIRMONT       CLOUDY    46  28  49 SE21G30   30.09F
GLENCOE        CLOUDY    45  31  56 SE17G23   30.10F
FARIBAULT      CLOUDY    46  27  46 SE18      30.16F
OWATONNA       CLOUDY    43  30  61 SE17G25   30.16F
WASECA         CLOUDY    43  32  65 SE17      30.16S
ALBERT LEA     MOCLDY    45  32  61 SE14      30.16S
$$
MNZ078>079-086>088-094>096-190800-
   Southeast Minnesota

CITY           SKY/WX    TMP DP  RH WIND       PRES   REMARKS
ROCHESTER      MOCLDY    41  29  62 SE16      30.21S
RED WING       CLOUDY    46  27  46 SE15      30.21F
STANTON        MOCLDY    46  29  51 SE15G23   30.16F
DODGE CENTER   MOCLDY    43  32  65 SE14      30.19F
WINONA         MOCLDY    43  30  61 S6        30.27R
AUSTIN         MOCLDY    43  32  65 SE10      30.19R
PRESTON        PTCLDY    43  30  59 SE10      30.23S
$$
ABBREVIATIONS USED IN REMARKS
   TC - TEMPERATURES IN CELSIUS
  WCI - WIND CHILL INDEX
   HX - HEAT INDEX
  VSB - VISIBILITY
$$


USA.gov is the U.S. government's official web portal to all federal, state and local government web resources and services.